Date,TemperatureHighF,TemperatureAvgF,TemperatureLowF,DewpointHighF,DewpointAvgF,DewpointLowF,HumidityHigh,HumidityAvg,HumidityLow,PressureMaxIn,PressureMinIn,WindSpeedMaxMPH,WindSpeedAvgMPH,GustSpeedMaxMPH,PrecipitationSumIn
2013-9-5,71.0,65.6,58.0,69.0,55.2,45.0,99,70,48,0.00,40.00,11,6,17,0.00
2013-9-6,74.0,61.2,50.0,56.0,50.2,40.0,99,71,31,0.00,40.00,4,1,9,0.00
2013-9-7,80.0,70.1,56.0,70.0,58.4,49.0,93,68,43,0.00,40.00,9,5,14,0.00
2013-9-8,72.0,67.9,58.0,71.0,61.5,-99.9,99,83,59,0.00,40.00,11,5,17,0.00
2013-9-9,80.0,67.0,55.0,75.0,63.8,52.0,99,90,70,0.00,40.00,6,1,11,0.00
2013-9-10,95.0,83.2,74.0,79.0,73.2,67.0,99,75,41,0.00,40.00,15,8,20,0.00
2013-9-11,92.0,82.7,76.0,78.0,73.1,65.0,96,75,42,0.00,40.00,12,7,17,0.00
2013-9-12,77.0,69.8,56.0,73.0,68.6,56.0,99,96,83,0.00,40.00,9,4,19,0.00
2013-9-13,60.0,57.2,53.0,60.0,54.4,46.0,99,90,65,0.00,40.00,12,7,24,0.00
2013-9-15,68.0,56.0,49.0,60.0,49.0,-99.9,99,83,48,0.00,40.00,9,1,12,0.00
2013-9-16,62.0,58.3,53.0,60.0,56.1,51.0,99,92,75,0.00,40.00,14,4,21,0.00
2013-9-17,70.0,57.1,44.0,53.0,43.8,38.0,99,67,33,0.00,40.00,6,1,11,0.00
2013-9-18,54.0,52.0,49.0,51.0,47.5,45.0,97,85,70,0.00,40.00,0,0,3,0.00
2013-9-19,78.0,67.4,60.0,70.0,65.6,60.0,99,93,73,0.00,40.00,12,4,17,0.00
2013-9-20,82.0,72.4,65.0,74.0,70.0,65.0,99,92,76,0.00,40.00,15,6,23,0.00
2013-9-21,69.0,63.8,57.0,69.0,63.4,57.0,99,98,81,0.00,40.00,10,4,16,0.00
2013-9-22,58.0,53.7,51.0,58.0,46.9,-99.9,99,81,62,0.00,40.00,9,4,17,0.00
2013-9-23,59.0,53.4,47.0,51.0,47.8,44.0,99,82,58,0.00,40.00,5,1,10,0.00
2013-9-24,67.0,54.0,41.0,55.0,49.1,41.0,99,85,55,0.00,40.00,10,2,14,0.00
2013-9-25,73.0,58.6,47.0,58.0,50.1,43.0,99,77,37,0.00,40.00,6,1,9,0.00
2013-9-26,71.0,60.7,48.0,56.0,50.0,45.0,99,72,39,0.00,40.00,9,2,12,0.00
2013-9-27,71.0,62.6,55.0,60.0,55.6,50.0,99,80,50,0.00,40.00,9,2,16,0.00
2013-9-28,76.0,63.7,53.0,60.0,56.3,53.0,99,80,47,0.00,40.00,8,2,14,0.00
2013-9-29,74.0,63.3,54.0,64.0,57.3,-99.9,99,84,62,0.00,40.00,12,3,17,0.00
2013-9-30,66.0,62.9,60.0,66.0,62.9,60.0,99,99,99,0.00,40.00,7,3,9,0.00